Location: Góry Miechowskie
(50.3599°N, 20.1803°E)
Time: 14:56:06
(UTC+00:00)

Tiros 1 - Pass Details

Date: 22 September 2024
Orbit: 623 x 654 km, 48.4° (Epoch: 11 October)

Event Time Altitude Azimuth Distance (km) Brightness Sun altitude
Rises 17:33:22 0° 279° (W) 2,907 12.9 -9.8°
Reaches altitude 10° 17:36:14 10° 262° (W) 2,000 10.9 -10.3°
Maximum altitude 17:39:26 19° 217° (SW) 1,509 9.3 -10.8°
Drops below altitude 10° 17:42:37 10° 173° (S) 2,005 9.5 -11.3°
Enters shadow 17:45:01 - 158° (SSE) 2,745 10.0 -11.6°
